SCD 1

Last updated on Sat Jul 05 2025 00:02:28 GMT+0000 (Coordinated Universal Time)

1 22490U 93009B 25185.47677263 .00000363 00000+0 48753-4 0 9993 2 22490 24.9676 194.0753 0042333 58.7094 76.8803 14.45869466710733
UTC large
Height (km)
Speed (km/s)
/
Latitude / Longitude
Inclination (degrees)
Orbital Period (minutes)
Azimuth
Elevation
Range (km)
Doppler Factor

Next 0 passes for location: London (51.5072 / 0.1276)

Sorry there are no passes over London.